Location: Unspecified
(0.0000°N, 0.0000°E)
Time: 20:47:02
(UTC+00:00)

Altair 2 - Pass Details

Date: 18 October 2024
Orbit: 523 x 2152 km, 81.3° (Epoch: 11 November)

Event Time Altitude Azimuth Distance (km) Brightness Sun altitude
Rises 04:36:52 0° 343° (NNW) 5,655 11.2 -16.8°
Reaches altitude 10° 04:40:34 10° 338° (NNW) 4,653 10.7 -15.9°
Maximum altitude 04:52:02 47° 269° (W) 2,456 9.1 -13.1°
Drops below altitude 10° 05:01:40 10° 198° (SSW) 3,891 10.5 -10.7°
Sets 05:04:32 0° 192° (SSW) 4,680 11.0 -10.0°
